Location: ????????
(60.4333°N, 46.4710°E)
Time: 19:16:58
(UTC+00:00)

Cosmos 405 - Pass Details

Date: 25 November 2020
Orbit: 449 x 462 km, 81.3° (Epoch: 16 January)

Event Time Altitude Azimuth Distance (km) Brightness Sun altitude
Rises 14:39:34 0° 212° (SSW) 2,472 7.3 -17.9°
Reaches altitude 10° 14:41:42 10° 219° (SW) 1,600 6.4 -18.1°
Maximum altitude 14:45:04 44° 293° (WNW) 641 4.0 -18.5°
Enters shadow 14:47:42 15° 3° (N) 1,312 5.1 -18.9°
